Weather History for KMEM - December, 2012

Change the Weather History Date:

Wednesday, December 19, 2012

  Actual Average Record
Temperature  
Mean Temperature 60 °F 43 °F  
Max Temperature 71 °F 51 °F 74 °F (1889)
Min Temperature 48 °F 34 °F 8 °F (1884)
Degree Days  
Heating Degree Days 5 22  
Month to date heating degree days 178 387  
Since 1 July heating degree days 735 886  
Cooling Degree Days 0 0  
Month to date cooling degree days 4 0  
Year to date cooling degree days 2617 2256  
Growing Degree Days 10 (Base 50)    
Moisture  
Dew Point 46 °F    
Average Humidity 60    
Maximum Humidity 77    
Minimum Humidity 42    
Precipitation  
Precipitation 0.01 in 0.18 in 2.89 in (2002)
Month to date precipitation 1.60 3.69  
Year to date precipitation 34.77 51.63  
Snow  
Snow 0.00 in 0.00 in 1.80 in (1929)
Month to date snowfall 0.0 0.0  
Since 1 July snowfall 0.0 T  
Snow Depth 0.00 in    
Sea Level Pressure  
Sea Level Pressure 29.85 in    
Wind  
Wind Speed 10 mph (South)    
Max Wind Speed 24 mph    
Max Gust Speed 32 mph    
Visibility 10 miles    
Events Rain    
T = Trace of Precipitation, MM = Missing Value Source: NWS Daily Summary

Daily Weather History Graph

Daily Weather History Graph

Search for Another Location

Airport or City:

Trip Planner

Search our weather history database for the weather conditions in past years. The results will help you decide how hot, cold, wet, or windy it might be!

Date:

Astronomy

Dec. 19, 2012 Rise Set
Actual Time 7:03 AM CST 4:51 PM CST
Civil Twilight 6:35 AM CST 5:19 PM CST
Nautical Twilight 6:03 AM CST 5:51 PM CST
Astronomical Twilight 5:32 AM CST 6:22 PM CST
Moon 11:27 AM CST (12/19) No Moon Set
Length of Visible Light 10h 44m
Length of Day
9h 47m
Waxing Crescent, 45% of the Moon is Illuminated
Dec 19
Waxing Crescent
Dec 19
First Quarter
Dec 28
Full
Jan 4
Last Quarter
Jan 11
New

Hourly Weather History & Observations

Time (CST) Temp. Dew Point Humidity Pressure Visibility Wind Dir Wind Speed Gust Speed Precip Events Conditions
12:54 AM 50.0 °F 41.0 °F 71% 29.90 in 10.0 mi South 6.9 mph - N/A   Scattered Clouds
1:54 AM 50.0 °F 41.0 °F 71% 29.90 in 10.0 mi South 6.9 mph - N/A   Partly Cloudy
2:54 AM 51.1 °F 41.0 °F 68% 29.91 in 10.0 mi South 6.9 mph - N/A   Partly Cloudy
3:54 AM 50.0 °F 41.0 °F 71% 29.91 in 10.0 mi South 8.1 mph - N/A   Partly Cloudy
4:54 AM 52.0 °F 43.0 °F 71% 29.91 in 10.0 mi SSW 4.6 mph - N/A   Partly Cloudy
5:54 AM 51.1 °F 43.0 °F 74% 29.93 in 10.0 mi South 4.6 mph - N/A   Partly Cloudy
6:54 AM 50.0 °F 43.0 °F 77% 29.94 in 10.0 mi SSE 3.5 mph - N/A   Scattered Clouds
7:54 AM 51.1 °F 44.1 °F 77% 29.96 in 10.0 mi SE 3.5 mph - N/A   Mostly Cloudy
8:54 AM 55.9 °F 46.0 °F 69% 29.95 in 10.0 mi South 5.8 mph - N/A   Mostly Cloudy
9:54 AM 61.0 °F 48.0 °F 62% 29.96 in 10.0 mi South 8.1 mph - N/A   Mostly Cloudy
10:54 AM 64.9 °F 50.0 °F 58% 29.94 in 10.0 mi SSW 9.2 mph 17.3 mph N/A   Mostly Cloudy
11:54 AM 66.9 °F 52.0 °F 59% 29.91 in 10.0 mi South 11.5 mph - N/A   Mostly Cloudy
12:54 PM 69.1 °F 52.0 °F 54% 29.88 in 10.0 mi SSW 10.4 mph 17.3 mph N/A   Overcast
1:54 PM 69.1 °F 52.0 °F 54% 29.86 in 10.0 mi SSW 12.7 mph - N/A   Overcast
2:54 PM 69.1 °F 50.0 °F 51% 29.85 in 10.0 mi South 10.4 mph - N/A   Overcast
3:54 PM 66.9 °F 45.0 °F 45% 29.85 in 10.0 mi South 10.4 mph - N/A   Overcast
4:54 PM 66.0 °F 42.1 °F 42% 29.83 in 10.0 mi SSE 8.1 mph - N/A   Overcast
5:54 PM 64.9 °F 42.1 °F 43% 29.82 in 10.0 mi SE 8.1 mph - N/A   Overcast
6:54 PM 63.0 °F 44.1 °F 50% 29.81 in 10.0 mi SE 10.4 mph - N/A   Overcast
7:54 PM 63.0 °F 45.0 °F 52% 29.78 in 10.0 mi SE 13.8 mph 19.6 mph N/A   Mostly Cloudy
8:54 PM 64.0 °F 46.0 °F 52% 29.76 in 10.0 mi SSE 16.1 mph 23.0 mph N/A   Overcast
9:54 PM 66.0 °F 46.0 °F 48% 29.73 in 10.0 mi SSE 19.6 mph 26.5 mph N/A   Overcast
10:54 PM 64.9 °F 46.9 °F 52% 29.71 in 10.0 mi SSE 18.4 mph 31.1 mph N/A   Overcast
11:54 PM 64.0 °F 52.0 °F 65% 29.67 in 10.0 mi SSE 16.1 mph 23.0 mph 0.01 in Rain Rain
11:59 PM 64.4 °F 53.6 °F 68% 29.68 in 10.0 mi South 20.7 mph 25.3 mph 0.00 in Rain Light Rain